Location: Ethel Rock
(53.4667°N, 4.5667°W)
Time: 04:52:42
(UTC+00:00)

USA 234 - Pass Details

Date: 24 October 2020
Orbit: 1100 x 1108 km, 123.0° (Epoch: 13 November)

Event Time Altitude Azimuth Distance (km) Brightness Sun altitude
Rises 02:16:49 0° 61° (ENE) 3,927 7.0 -40.6°
Reaches altitude 10° 02:19:19 10° 65° (ENE) 2,968 6.1 -40.3°
Enters shadow 02:23:14 38° 78° (ENE) 1,620 4.3 -39.9°
